Location: Alexandria
(38.8050°N, 77.0470°W)
Time: 11:12:13

ISS - Pass Details

Date: 17 March 2018
Orbit: 403 x 406 km, 51.6° (Epoch: 23 March)

Event Time Altitude Azimuth Distance (km) Brightness Sun altitude
Exits shadow 05:33:15 19° 350° (N) 1,032 -1.8 -20.7°
Maximum altitude 05:34:38 26° 28° (NNE) 848 -1.8 -20.5°
Drops below altitude 10° 05:37:26 10° 87° (E) 1,459 0.1 -19.9°
Sets 05:39:44 0° 101° (E) 2,315 1.1 -19.5°
